{"data":{"norad_id":54010,"epoch":"2026-09-20T22:30:59.993568Z","epoch_age_seconds":49004,"freshness":"FRESH","line1":"1 54010U 22125AY  26263.93819437  .00001265  00000+0  48552-4 0  9996","line2":"2 54010  53.1603  35.4052 0001031  77.4749 282.6369 15.34403562219249","mean_motion":15.34403562,"eccentricity":0.0001031,"inclination_deg":53.1603,"raan_deg":35.4052,"arg_perigee_deg":77.4749,"mean_anomaly_deg":282.6369,"bstar":4.8552e-5,"rev_number":21924,"period_min":93.847540220973,"perigee_km":461.98736367568,"apogee_km":463.39794275018,"semimajor_km":6840.8296532129,"source":"CELESTRAK","updated_at":"2026-09-21T09:00:33.074375Z"}}